Location: Tel Aviv
(32.0670°N, 34.7670°E)
Time: 13:05:10
(UTC+03:00)

Transit 2A - Pass Details

Date: 30 January 2022
Orbit: 598 x 960 km, 66.7° (Epoch: 20 May)

Event Time Altitude Azimuth Distance (km) Brightness Sun altitude
Rises 17:29:14 0° 353° (N) 3,548 9.3 -4.1°
Reaches altitude 10° 17:33:28 10° 20° (NNE) 2,530 8.3 -5.0°
Maximum altitude 17:36:03 13° 47° (NE) 2,272 7.9 -5.5°
Drops below altitude 10° 17:38:32 10° 73° (ENE) 2,421 7.9 -6.0°
Enters shadow 17:40:00 - 86° (E) 2,675 8.2 -6.3°
Sets 17:42:21 0° 101° (E) 3,257 - -6.8°
